China Lake, CA

8:47 AM PDT on April 27, 2017 (GMT -0700)
China Lake NAWS

Weather History for KNID - July, 2014

Change the Weather History Date:

Monday, July 21, 2014

  Actual Average Record
Temperature  
Mean Temperature 86 °F -  
Max Temperature 99 °F 100 °F 109 °F (2000)
Min Temperature 72 °F 71 °F 61 °F (2011)
Cooling Degree Days 20    
Growing Degree Days 36 (Base 50)    
Moisture  
Dew Point 51 °F    
Average Humidity 33    
Maximum Humidity 53    
Minimum Humidity 16    
Precipitation  
Precipitation 0.00 in - - ()
Sea Level Pressure  
Sea Level Pressure 29.90 in    
Wind  
Wind Speed 11 mph (South)    
Max Wind Speed 20 mph    
Max Gust Speed 28 mph    
Visibility 10 miles    
Events      
Averages and records for this station are not official NWS values.
T = Trace of Precipitation, MM = Missing Value Source: NWS Daily Summary

Daily Weather History Graph

Daily Weather History Graph

Search for Another Location

Airport or City:

Trip Planner

Search our weather history database for the weather conditions in past years. The results will help you decide how hot, cold, wet, or windy it might be!

Date:

Astronomy

Jul. 21, 2014 Rise Set
Actual Time 5:50 AM PDT 8:03 PM PDT
Civil Twilight 5:21 AM PDT 8:32 PM PDT
Nautical Twilight 4:46 AM PDT 9:07 PM PDT
Astronomical Twilight 4:07 AM PDT 9:45 PM PDT
Moon 1:42 AM PDT (7/21) 3:52 PM PDT (7/21)
Length of Visible Light 15h 10m
Length of Day
14h 12m
Waning Crescent, 23% of the Moon is Illuminated
Jul 21
Waning Crescent
Jul 26
New
Aug 3
First Quarter
Aug 10
Full
Aug 17
Last Quarter

Hourly Weather History & Observations

Time (PDT) Temp. Heat Index Dew Point Humidity Pressure Visibility Wind Dir Wind Speed Gust Speed Precip Events Conditions
12:56 AM 79.0 °F - 55.0 °F 44% 29.84 in 10.0 mi South 18.4 mph - N/A   Clear
1:56 AM 77.0 °F - 55.0 °F 47% 29.86 in 10.0 mi South 8.1 mph - N/A   Clear
2:56 AM 75.9 °F - 55.0 °F 48% 29.87 in 10.0 mi South 8.1 mph - N/A   Clear
3:56 AM 75.0 °F - 55.0 °F 50% 29.87 in 10.0 mi SSE 12.7 mph - N/A   Clear
4:56 AM 73.9 °F - 55.0 °F 52% 29.89 in 10.0 mi South 10.4 mph - N/A   Clear
5:56 AM 72.0 °F - 54.0 °F 53% 29.90 in 10.0 mi South 9.2 mph - N/A   Clear
6:56 AM 75.0 °F - 54.0 °F 48% 29.93 in 10.0 mi South 6.9 mph - N/A   Clear
7:56 AM 79.0 °F - 55.0 °F 44% 29.95 in 10.0 mi WSW 4.6 mph - N/A   Clear
8:56 AM 82.0 °F 81.4 °F 55.0 °F 39% 29.96 in 10.0 mi South 5.8 mph - N/A   Clear
9:56 AM 84.9 °F 83.6 °F 55.0 °F 36% 29.96 in 10.0 mi ESE 5.8 mph - N/A   Clear
10:56 AM 88.0 °F 85.9 °F 54.0 °F 31% 29.96 in 10.0 mi East 8.1 mph - N/A   Clear
11:56 AM 91.0 °F - 51.1 °F 25% 29.95 in 10.0 mi South 9.2 mph 17.3 mph N/A   Partly Cloudy
12:56 PM 93.0 °F - 48.0 °F 21% 29.92 in 10.0 mi Variable 5.8 mph - N/A   Partly Cloudy
1:56 PM 97.0 °F - 46.0 °F 18% 29.90 in 10.0 mi South 10.4 mph - N/A   Partly Cloudy
2:56 PM 97.0 °F - 50.0 °F 20% 29.88 in 10.0 mi South 15.0 mph 19.6 mph N/A   Partly Cloudy
3:56 PM 99.0 °F - 48.0 °F 18% 29.86 in 10.0 mi South 10.4 mph 19.6 mph N/A   Scattered Clouds
4:56 PM 98.1 °F - 44.1 °F 16% 29.86 in 10.0 mi South 19.6 mph 27.6 mph N/A   Partly Cloudy
5:56 PM 96.1 °F - 46.9 °F 19% 29.86 in 10.0 mi South 18.4 mph 27.6 mph N/A   Partly Cloudy
6:56 PM 93.9 °F - 50.0 °F 22% 29.86 in 10.0 mi South 18.4 mph 24.2 mph N/A   Partly Cloudy
7:56 PM 91.9 °F - 50.0 °F 24% 29.87 in 10.0 mi SSW 13.8 mph - N/A   Partly Cloudy
8:56 PM 88.0 °F - 48.9 °F 26% 29.88 in 10.0 mi South 10.4 mph - N/A   Partly Cloudy
9:56 PM 86.0 °F - 50.0 °F 29% 29.90 in 10.0 mi SSW 11.5 mph - N/A   Partly Cloudy
10:56 PM 82.9 °F - 50.0 °F 32% 29.90 in 10.0 mi SSE 9.2 mph - N/A   Partly Cloudy
11:56 PM 81.0 °F - 48.9 °F 33% 29.91 in 10.0 mi South 8.1 mph - N/A   Clear